658  
ASUS44 KHUN 102110  
RWRHUN  
 
WEATHER ROUNDUP FOR THE TENNESSEE VALLEY  
NATIONAL WEATHER SERVICE HUNTSVILLE AL  
400 PM CDT SAT APR 10 2021  
 
ALZ001>004-102200-  
NORTHWEST ALABAMA  
 
CITY SKY/WX TMP DP RH WIND PRES REMARKS
 
SHOALS AIRPORT PTSUNNY 73 55 53 SW14 29.62S  

 
 
ALZ005>007-016-102200-  
NORTH CENTRAL ALABAMA  
 
CITY SKY/WX TMP DP RH WIND PRES REMARKS
 
CULLMAN AG STN N/A 72 N/A N/A W10 N/A  
DECATUR AP PTSUNNY 73 55 53 SW13G20 29.62F  
HUNTSVILLE AP MOSUNNY 73 59 61 SW14 29.62F  
HUN NWS/UAH N/A 72 56 56 W9 N/A  
MERIDIANVILLE CLOUDY 73 57 59 S15 29.63S  
VINEMONT AP FAIR 70 55 57 S13 29.67F  

 
 
ALZ008>010-102200-  
NORTHEAST ALABAMA  
 
CITY SKY/WX TMP DP RH WIND PRES REMARKS
 
ALBERTVILLE MOSUNNY 72 55 56 SW15G22 29.65F  
FORT PAYNE MOSUNNY 72 57 58 SW15G25 29.63F  
SCOTTSBORO AP PTSUNNY 72 59 64 SW12G20 29.64F  

 
 
TNZ076-096-097-102200-  
SOUTHEASTERN MIDDLE TENNESSEE  
 
CITY SKY/WX TMP DP RH WIND PRES REMARKS
 
FAYETTEVILLE PTSUNNY 70 57 64 SW16 29.64S  
TULLAHOMA PTSUNNY 70 54 56 SW15G24 29.61F  
WINCHESTER MOSUNNY 70 55 60 SW14G20 29.62S  

 
   
..SURROUNDING SITES
 
 
 
CITY SKY/WX TMP DP RH WIND PRES REMARKS
 
ATLANTA PTSUNNY 69 59 70 SW14G23 29.68F  
ANNISTON MOSUNNY 74 57 55 SW14 29.67F  
BIRMINGHAM PTSUNNY 74 57 55 SW13 29.69F  
CHATTANOOGA PTSUNNY 73 58 59 S15G24 29.62F  
CORINTH MOSUNNY 73 52 46 W12G23 29.62F  
DALTON PTSUNNY 70 59 68 S7 29.67F  
GADSDEN MOSUNNY 73 60 63 VRB6G16 29.65F  
GOLDEN TRNGL MOSUNNY 75 61 61 W9G17 29.68F  
HALEYVILLE PTSUNNY 71 56 58 W14G22 29.67F  
JACKSON TN PTSUNNY 70 52 52 W15 29.61S  
MEMPHIS MOSUNNY 70 47 43 W17G28 29.65R  
NASHVILLE MOSUNNY 71 56 58 S12G25 29.58S  
OXFORD MS MOSUNNY 70 52 52 SW14G25 29.68S  
ROME PTSUNNY 73 59 61 SW8 29.64F  
SAVANNAH MOSUNNY 73 54 49 SW14G25 29.60F  
SELMER MOSUNNY 72 52 49 SW9G21 29.60F  
TUPELO MOSUNNY 73 55 53 SW15G22 29.65F  
TUSCALOOSA MOSUNNY 77 62 59 SW12 29.67F  

 
 
 
 
CLICK HERE TO GO TO PREVIOUS BULLETINS.

The Nexlab AL Page
The Nexlab TN Page Main Text Page